• Join FlightAware (Why Join?)
  • Login
  • US Flag 
02:46AM EDT


 

Airport Tracker/Info


-or-


 

Live Flight TrackerFlight Track Log ✈ GJS3649 ✈ 15-May-2013 ✈ KBDL - KIAD

Flight Track Log - Related Links

Times and Time Zones

All times are in EDT time to prevent confusion due to time zone crossing. See the GJS3649 flight status page for this flight to view local times or setup timezone preferences in your user account.

Time Position Orientation Groundspeed Altitude Reporting Facility
EDT Latitude Longitude Course Direction KTS MPH feet Rate Location/Type
07:24PM 41.9186 -72.6717 242° Southwest 140 161 1,200  Level Boston Center
07:26PM 41.9039 -72.7775 259° West 192 221 5,900 2,460 Climbing Boston Center
07:27PM 41.9114 -73.0740 265° West  Level FlightAware Approximate
07:27PM 41.9078 -72.8531 274° West 197 227 8,400  Level Boston Center
07:28PM 41.9020 -73.2060 265° West  Level FlightAware Approximate
07:28PM 41.9075 -72.9450 270° West 214 246 10,500  Level Boston Center
07:29PM 41.8841 -73.3319 236° Southwest  Level FlightAware Approximate
07:29PM 41.9089 -73.0706 271° West 262 302 12,600  Level Boston Center
07:30PM 41.8297 -73.4424 242° Southwest  Level FlightAware Approximate
07:30PM 41.9103 -73.1767 271° West 308 354 14,600  Level Boston Center
07:31PM 41.8967 -73.3297 263° West 318 366 17,300 2,280 Climbing Boston Center
07:32PM 41.8500 -73.4267 237° Southwest 330 380 19,200 1,800 Climbing Boston Center
07:34PM 41.7883 -73.5622 239° Southwest 350 403 21,300 1,620 Climbing Boston Center
07:36PM 41.5969 -73.7419 215° Southwest 416 479 24,700 1,440 Climbing New York Center
07:37PM 41.4906 -73.8314 212° Southwest 411 473 25,900 1,200 Climbing New York Center
07:38PM 41.3864 -73.9125 210° Southwest 427 491 27,100 1,020 Climbing New York Center
07:39PM 41.2886 -73.9878 210° Southwest 444 511 28,000 420 Climbing New York Center
07:40PM 41.1800 -74.0681 209° Southwest 444 511 28,000 -60 Level New York Center
07:41PM 41.1017 -74.1881 229° Southwest 431 496 27,900  Descending New York Center
07:42PM 41.0267 -74.3300 235° Southwest 431 496 28,000  Climbing New York Center
07:43PM 40.9622 -74.4669 238° Southwest 436 502 28,000 -60 Level New York Center
07:44PM 40.9014 -74.6064 240° Southwest 441 507 27,900  Descending New York Center
07:45PM 40.8550 -74.7492 247° West 433 498 28,000  Climbing New York Center
07:46PM 40.8153 -74.8783 248° West 433 498 27,900  Descending New York Center
07:47PM 40.7542 -75.0089 238° Southwest 433 498 28,000 -240 Climbing New York Center
07:48PM 40.6911 -75.1419 238° Southwest 428 493 27,500 -900 Descending New York Center
07:49PM 40.6281 -75.2664 236° Southwest 428 493 26,300 -1,200 Descending New York Center
07:50PM 40.5692 -75.3908 238° Southwest 418 481 25,100 -1,320 Descending New York Center
07:51PM 40.5078 -75.5150 237° Southwest 413 475 23,700 -1,440 Descending New York Center
07:52PM 40.4489 -75.6339 237° Southwest 408 470 22,300 -1,380 Descending New York Center
07:53PM 40.3897 -75.7550 237° Southwest 396 456 20,900 -1,200 Descending New York Center
07:54PM 40.3347 -75.8708 238° Southwest 396 456 20,000 -480 Descending New York Center
07:55PM 40.2714 -75.9831 234° Southwest 396 456 20,000  Level New York Center
07:56PM 40.2164 -76.0958 237° Southwest 385 443 20,000  Level New York Center
07:57PM 40.1653 -76.2089 239° Southwest 380 437 20,000  Level New York Center
07:58PM 40.0969 -76.3339 234° Southwest 380 437 20,000 -840 Level New York Center
08:00PM 39.9833 -76.5833 239° Southwest 366 421 17,400 -1,200 Descending Potomac TRACON
08:01PM 39.9333 -76.7000 241° Southwest 357 411 16,100 -1,200 Descending Potomac TRACON
08:02PM 39.8833 -76.8000 237° Southwest 350 403 15,000 -600 Descending Potomac TRACON
08:03PM 39.8333 -76.9167 241° Southwest 352 405 15,000 -600 Level Potomac TRACON
08:04PM 39.7833 -77.0167 237° Southwest 347 399 13,900 -1,260 Descending Potomac TRACON
08:06PM 39.6979 -77.1877 237° Southwest  Level FlightAware Approximate
08:07PM 39.6333 -77.3167 237° Southwest 292 336 10,000  Level Potomac TRACON
08:08PM 39.5667 -77.3500 201° Southwest 294 338 9,400 -1,140 Descending Potomac TRACON
08:09PM 39.5000 -77.4000 210° Southwest 282 325 7,800 -1,500 Descending Potomac TRACON
08:10PM 39.4333 -77.4500 210° Southwest 273 314 6,500 -1,200 Descending Potomac TRACON
08:11PM 39.3500 -77.4500 180° South 279 321 5,500 -960 Descending Potomac TRACON
08:12PM 39.2667 -77.4500 180° South 272 313 4,600 -1,080 Descending Potomac TRACON
08:13PM 39.2000 -77.4500 180° South 274 315 3,400 -960 Descending Potomac TRACON
08:14PM 39.1167 -77.4500 180° South 255 293 2,700 -660 Descending Potomac TRACON
08:15PM 39.0667 -77.4500 180° South 197 227 2,100 -600 Descending Potomac TRACON